Time,TemperatureF,DewpointF,PressureIn,WindDirection,WindDirectionDegrees,WindSpeedMPH,WindSpeedGustMPH,Humidity,HourlyPrecipIn,Conditions,Clouds,dailyrainin,SoftwareType,DateUTC
2013-04-10 00:23:00,57.0,-99.9,29.92,SE,137,-999.0,-999.0,-999,-99.99,,,-99.99,,2013-04-10 04:23:00,
2013-04-10 00:33:00,57.0,-99.9,29.92,SE,137,-999.0,-999.0,-999,-99.99,,,-99.99,,2013-04-10 04:33:00,
2013-04-10 00:43:00,57.0,-99.9,29.92,SE,137,-999.0,-999.0,-999,-99.99,,,-99.99,,2013-04-10 04:43:00,
2013-04-10 01:52:00,54.0,-99.9,29.88,SE,137,-999.0,-999.0,-999,-99.99,,,-99.99,,2013-04-10 05:52:00,
2013-04-10 02:22:00,54.0,-99.9,29.88,SE,137,-999.0,-999.0,-999,-99.99,,,-99.99,,2013-04-10 06:22:00,
2013-04-10 02:32:00,54.0,-99.9,29.88,SE,137,-999.0,-999.0,-999,-99.99,,,-99.99,,2013-04-10 06:32:00,
2013-04-10 02:43:00,54.0,-99.9,29.88,SE,137,-999.0,-999.0,-999,-99.99,,,-99.99,,2013-04-10 06:43:00,
2013-04-10 02:52:00,53.0,-99.9,29.86,SE,137,-999.0,-999.0,-999,-99.99,,,-99.99,,2013-04-10 06:52:00,
2013-04-10 03:23:00,53.0,-99.9,29.86,SE,137,-999.0,-999.0,-999,-99.99,,,-99.99,,2013-04-10 07:23:00,
2013-04-10 03:33:00,53.0,-99.9,29.86,SE,137,-999.0,-999.0,-999,-99.99,,,-99.99,,2013-04-10 07:33:00,
2013-04-10 03:43:00,53.0,-99.9,29.86,SE,137,-999.0,-999.0,-999,-99.99,,,-99.99,,2013-04-10 07:43:00,
2013-04-10 03:52:00,57.0,-99.9,29.89,SE,137,-999.0,-999.0,-999,-99.99,,,-99.99,,2013-04-10 07:52:00,
2013-04-10 04:22:00,57.0,-99.9,29.89,SE,137,-999.0,-999.0,-999,-99.99,,,-99.99,,2013-04-10 08:22:00,
2013-04-10 04:32:00,57.0,-99.9,29.89,SE,137,-999.0,-999.0,-999,-99.99,,,-99.99,,2013-04-10 08:32:00,
2013-04-10 04:43:00,57.0,-99.9,29.89,SE,137,-999.0,-999.0,-999,-99.99,,,-99.99,,2013-04-10 08:43:00,
2013-04-10 04:52:00,58.0,-99.9,29.92,North,4,-999.0,-999.0,-999,-99.99,,,-99.99,,2013-04-10 08:52:00,
2013-04-10 05:23:00,58.0,-99.9,29.92,North,4,-999.0,-999.0,-999,-99.99,,,-99.99,,2013-04-10 09:23:00,
2013-04-10 05:33:00,58.0,-99.9,29.92,North,4,-999.0,-999.0,-999,-99.99,,,-99.99,,2013-04-10 09:33:00,
2013-04-10 05:43:00,58.0,-99.9,29.92,North,4,-999.0,-999.0,-999,-99.99,,,-99.99,,2013-04-10 09:43:00,
2013-04-10 05:52:00,54.0,-99.9,29.93,North,-999,-999.0,-999.0,-999,-99.99,,,-99.99,,2013-04-10 09:52:00,
2013-04-10 06:23:00,54.0,-99.9,29.93,North,-999,-999.0,-999.0,-999,-99.99,,,-99.99,,2013-04-10 10:23:00,
2013-04-10 06:33:00,54.0,-99.9,29.93,North,-999,-999.0,-999.0,-999,-99.99,,,-99.99,,2013-04-10 10:33:00,
2013-04-10 06:43:00,54.0,-99.9,29.93,North,-999,-999.0,-999.0,-999,-99.99,,,-99.99,,2013-04-10 10:43:00,
2013-04-10 06:52:00,51.0,-99.9,29.95,North,-999,-999.0,-999.0,-999,-99.99,,,-99.99,,2013-04-10 10:52:00,
2013-04-10 07:22:00,51.0,-99.9,29.95,North,-999,-999.0,-999.0,-999,-99.99,,,-99.99,,2013-04-10 11:22:00,
2013-04-10 07:32:00,51.0,-99.9,29.95,North,-999,-999.0,-999.0,-999,-99.99,,,-99.99,,2013-04-10 11:32:00,
2013-04-10 07:42:00,51.0,-99.9,29.95,North,-999,-999.0,-999.0,-999,-99.99,,,-99.99,,2013-04-10 11:42:00,
2013-04-10 07:52:00,54.0,-99.9,29.97,North,-999,-999.0,-999.0,-999,-99.99,,,-99.99,,2013-04-10 11:52:00,
2013-04-10 08:23:00,54.0,-99.9,29.97,North,-999,-999.0,-999.0,-999,-99.99,,,-99.99,,2013-04-10 12:23:00,
2013-04-10 08:33:00,54.0,-99.9,29.97,North,-999,-999.0,-999.0,-999,-99.99,,,-99.99,,2013-04-10 12:33:00,
2013-04-10 08:43:00,54.0,-99.9,29.97,North,-999,-999.0,-999.0,-999,-99.99,,,-99.99,,2013-04-10 12:43:00,
2013-04-10 08:52:00,61.0,-99.9,29.97,SE,136,-999.0,-999.0,-999,-99.99,,,-99.99,,2013-04-10 12:52:00,
2013-04-10 09:24:00,61.0,-99.9,29.97,SE,136,-999.0,-999.0,-999,-99.99,,,-99.99,,2013-04-10 13:24:00,
2013-04-10 09:33:00,61.0,-99.9,29.97,SE,136,-999.0,-999.0,-999,-99.99,,,-99.99,,2013-04-10 13:33:00,
2013-04-10 09:43:00,61.0,-99.9,29.97,SE,136,-999.0,-999.0,-999,-99.99,,,-99.99,,2013-04-10 13:43:00,
2013-04-10 09:52:00,67.0,-99.9,29.94,East,100,3.0,3.0,-999,-99.99,,,-99.99,,2013-04-10 13:52:00,
2013-04-10 10:22:00,67.0,-99.9,29.94,East,100,3.0,3.0,-999,-99.99,,,-99.99,,2013-04-10 14:22:00,
2013-04-10 10:33:00,67.0,-99.9,29.94,East,100,3.0,3.0,-999,-99.99,,,-99.99,,2013-04-10 14:33:00,
2013-04-10 10:42:00,67.0,-99.9,29.94,East,100,3.0,3.0,-999,-99.99,,,-99.99,,2013-04-10 14:42:00,
2013-04-10 10:52:00,70.0,-99.9,29.94,SE,140,-999.0,-999.0,-999,-99.99,,,-99.99,,2013-04-10 14:52:00,
2013-04-10 11:23:00,70.0,-99.9,29.94,SE,140,-999.0,-999.0,-999,-99.99,,,-99.99,,2013-04-10 15:23:00,
2013-04-10 11:33:00,70.0,-99.9,29.94,SE,140,-999.0,-999.0,-999,-99.99,,,-99.99,,2013-04-10 15:33:00,
2013-04-10 11:43:00,70.0,-99.9,29.94,SE,140,-999.0,-999.0,-999,-99.99,,,-99.99,,2013-04-10 15:43:00,
2013-04-10 11:52:00,76.0,-99.9,29.93,SSE,150,-999.0,-999.0,-999,-99.99,,,-99.99,,2013-04-10 15:52:00,
2013-04-10 12:23:00,76.0,-99.9,29.93,SSE,150,-999.0,-999.0,-999,-99.99,,,-99.99,,2013-04-10 16:23:00,
2013-04-10 12:33:00,76.0,-99.9,29.93,SSE,150,-999.0,-999.0,-999,-99.99,,,-99.99,,2013-04-10 16:33:00,
2013-04-10 12:43:00,76.0,-99.9,29.93,SSE,150,-999.0,-999.0,-999,-99.99,,,-99.99,,2013-04-10 16:43:00,
2013-04-10 12:52:00,78.0,-99.9,29.91,East,82,-999.0,-999.0,-999,-99.99,,,-99.99,,2013-04-10 16:52:00,
2013-04-10 13:23:00,78.0,-99.9,29.91,East,82,-999.0,-999.0,-999,-99.99,,,-99.99,,2013-04-10 17:23:00,
2013-04-10 13:34:00,78.0,-99.9,29.91,East,82,-999.0,-999.0,-999,-99.99,,,-99.99,,2013-04-10 17:34:00,
2013-04-10 13:43:00,78.0,-99.9,29.91,East,82,-999.0,-999.0,-999,-99.99,,,-99.99,,2013-04-10 17:43:00,
2013-04-10 13:53:00,77.0,-99.9,29.90,North,354,-999.0,-999.0,-999,-99.99,,,-99.99,,2013-04-10 17:53:00,
2013-04-10 14:23:00,77.0,-99.9,29.90,North,354,-999.0,-999.0,-999,-99.99,,,-99.99,,2013-04-10 18:23:00,
2013-04-10 14:33:00,77.0,-99.9,29.90,North,354,-999.0,-999.0,-999,-99.99,,,-99.99,,2013-04-10 18:33:00,
2013-04-10 14:43:00,77.0,-99.9,29.90,North,354,-999.0,-999.0,-999,-99.99,,,-99.99,,2013-04-10 18:43:00,
2013-04-10 14:52:00,79.0,-99.9,29.87,North,7,-999.0,5.0,-999,-99.99,,,-99.99,,2013-04-10 18:52:00,
2013-04-10 15:22:00,79.0,-99.9,29.87,North,7,-999.0,5.0,-999,-99.99,,,-99.99,,2013-04-10 19:22:00,
2013-04-10 15:33:00,79.0,-99.9,29.87,North,7,-999.0,5.0,-999,-99.99,,,-99.99,,2013-04-10 19:33:00,
2013-04-10 15:42:00,79.0,-99.9,29.87,North,7,-999.0,5.0,-999,-99.99,,,-99.99,,2013-04-10 19:42:00,
2013-04-10 15:52:00,80.0,-99.9,29.84,NNE,29,-999.0,-999.0,-999,-99.99,,,-99.99,,2013-04-10 19:52:00,
2013-04-10 16:24:00,80.0,-99.9,29.84,NNE,29,-999.0,-999.0,-999,-99.99,,,-99.99,,2013-04-10 20:24:00,
2013-04-10 16:33:00,80.0,-99.9,29.84,NNE,29,-999.0,-999.0,-999,-99.99,,,-99.99,,2013-04-10 20:33:00,
2013-04-10 16:43:00,80.0,-99.9,29.84,NNE,29,-999.0,-999.0,-999,-99.99,,,-99.99,,2013-04-10 20:43:00,
2013-04-10 16:52:00,75.0,-99.9,29.83,NNE,33,5.0,11.0,-999,-99.99,,,-99.99,,2013-04-10 20:52:00,
2013-04-10 17:33:00,75.0,-99.9,29.83,NNE,33,5.0,11.0,-999,-99.99,,,-99.99,,2013-04-10 21:33:00,
2013-04-10 17:43:00,75.0,-99.9,29.83,NNE,33,5.0,11.0,-999,-99.99,,,-99.99,,2013-04-10 21:43:00,
2013-04-10 17:52:00,71.0,-99.9,29.81,WSW,255,3.0,7.0,-999,-99.99,,,-99.99,,2013-04-10 21:52:00,
2013-04-10 18:23:00,71.0,-99.9,29.81,WSW,255,3.0,7.0,-999,-99.99,,,-99.99,,2013-04-10 22:23:00,
2013-04-10 18:34:00,71.0,-99.9,29.81,WSW,255,3.0,7.0,-999,-99.99,,,-99.99,,2013-04-10 22:34:00,
2013-04-10 18:43:00,71.0,-99.9,29.81,WSW,255,3.0,7.0,-999,-99.99,,,-99.99,,2013-04-10 22:43:00,
2013-04-10 18:52:00,60.0,-99.9,29.87,SW,219,-999.0,7.0,-999,-99.99,,,-99.99,,2013-04-10 22:52:00,
2013-04-10 19:23:00,60.0,-99.9,29.87,SW,219,-999.0,7.0,-999,-99.99,,,-99.99,,2013-04-10 23:23:00,
2013-04-10 19:33:00,60.0,-99.9,29.87,SW,219,-999.0,7.0,-999,-99.99,,,-99.99,,2013-04-10 23:33:00,
2013-04-10 19:43:00,60.0,-99.9,29.87,SW,219,-999.0,7.0,-999,-99.99,,,-99.99,,2013-04-10 23:43:00,
2013-04-10 19:52:00,59.0,-99.9,29.81,SW,219,-999.0,-999.0,-999,-99.99,,,-99.99,,2013-04-10 23:52:00,
2013-04-10 20:23:00,59.0,-99.9,29.81,SW,219,-999.0,-999.0,-999,-99.99,,,-99.99,,2013-04-11 00:23:00,
2013-04-10 20:32:00,59.0,-99.9,29.81,SW,219,-999.0,-999.0,-999,-99.99,,,-99.99,,2013-04-11 00:32:00,
2013-04-10 20:43:00,59.0,-99.9,29.81,SW,219,-999.0,-999.0,-999,-99.99,,,-99.99,,2013-04-11 00:43:00,
2013-04-10 20:52:00,59.0,-99.9,29.86,SW,219,-999.0,-999.0,-999,-99.99,,,-99.99,,2013-04-11 00:52:00,
2013-04-10 21:22:00,59.0,-99.9,29.86,SW,219,-999.0,-999.0,-999,-99.99,,,-99.99,,2013-04-11 01:22:00,
2013-04-10 21:33:00,59.0,-99.9,29.86,SW,219,-999.0,-999.0,-999,-99.99,,,-99.99,,2013-04-11 01:33:00,
2013-04-10 21:42:00,59.0,-99.9,29.86,SW,219,-999.0,-999.0,-999,-99.99,,,-99.99,,2013-04-11 01:42:00,
2013-04-10 21:52:00,59.0,-99.9,29.92,SW,219,-999.0,-999.0,-999,-99.99,,,-99.99,,2013-04-11 01:52:00,
2013-04-10 22:22:00,59.0,-99.9,29.92,SW,219,-999.0,-999.0,-999,-99.99,,,-99.99,,2013-04-11 02:22:00,
2013-04-10 22:32:00,59.0,-99.9,29.92,SW,219,-999.0,-999.0,-999,-99.99,,,-99.99,,2013-04-11 02:32:00,
2013-04-10 22:42:00,59.0,-99.9,29.92,SW,219,-999.0,-999.0,-999,-99.99,,,-99.99,,2013-04-11 02:42:00,
2013-04-10 22:52:00,59.0,-99.9,29.88,SW,219,-999.0,-999.0,-999,-99.99,,,-99.99,,2013-04-11 02:52:00,
2013-04-10 23:22:00,59.0,-99.9,29.88,SW,219,-999.0,-999.0,-999,-99.99,,,-99.99,,2013-04-11 03:22:00,
2013-04-10 23:33:00,59.0,-99.9,29.88,SW,219,-999.0,-999.0,-999,-99.99,,,-99.99,,2013-04-11 03:33:00,
2013-04-10 23:43:00,59.0,-99.9,29.88,SW,219,-999.0,-999.0,-999,-99.99,,,-99.99,,2013-04-11 03:43:00,
2013-04-10 23:52:00,58.0,-99.9,29.86,SW,219,-999.0,-999.0,-999,-99.99,,,-99.99,,2013-04-11 03:52:00,